Calgary / Springba, Alberta

4:40 AM MST on February 28, 2017 (GMT -0700)
Springbank

Weather History for CYBW - November, 2012

Change the Weather History Date:

Tuesday, November 27, 2012

  Actual Average Record
Temperature  
Mean Temperature 18 °F -  
Max Temperature 26 °F 28 °F 53 °F (2002)
Min Temperature 10 °F 9 °F -22 °F (2006)
Degree Days  
Heating Degree Days 47    
Moisture  
Dew Point 12 °F    
Average Humidity 71    
Maximum Humidity 80    
Minimum Humidity 53    
Precipitation  
Precipitation 0.00 in - - ()
Sea Level Pressure  
Sea Level Pressure 30.19 in    
Wind  
Wind Speed 4 mph ()    
Max Wind Speed 8 mph    
Max Gust Speed -    
Visibility 15.8 miles    
Events      
Averages and records for this station are not official NWS values.
T = Trace of Precipitation, MM = Missing Value Source: Averaged Metar Reports

Daily Weather History Graph

Daily Weather History Graph

Search for Another Location

Airport or City:

Trip Planner

Search our weather history database for the weather conditions in past years. The results will help you decide how hot, cold, wet, or windy it might be!

Date:

Astronomy

Nov. 27, 2012 Rise Set
Actual Time 8:14 AM MST 4:36 PM MST
Civil Twilight 7:35 AM MST 5:14 PM MST
Nautical Twilight 6:54 AM MST 5:55 PM MST
Astronomical Twilight 6:14 AM MST 6:35 PM MST
Moon 4:11 PM MST (11/27) 7:20 AM MST (11/27)
Length of Visible Light 9h 38m
Length of Day
8h 21m
Waxing Gibbous, 99% of the Moon is Illuminated
Nov 27
Waxing Gibbous
Nov 28
Full
Dec 6
Last Quarter
Dec 13
New
Dec 19
First Quarter

Hourly Weather History & Observations

Time (MST) Temp. Windchill Dew Point Humidity Pressure Visibility Wind Dir Wind Speed Gust Speed Precip Events Conditions
5:00 AM 13 °F - 7 °F 68% 30.22 in 15 mi NNW 8.1 mph - -   Partly Cloudy
5:00 AM 14.0 °F 2.9 °F 6.8 °F 73% 30.22 in 15.0 mi NNW 8.1 mph - N/A   Scattered Clouds
6:00 AM 12.2 °F 0.7 °F 6.8 °F 79% 30.24 in 15.0 mi NW 8.1 mph - N/A   Scattered Clouds
7:00 AM 14.0 °F 3.9 °F 8.6 °F 79% 30.24 in 15.0 mi NNW 6.9 mph - N/A   Mostly Cloudy
8:00 AM 15.8 °F 6.1 °F 10.4 °F 79% 30.24 in 30.0 mi North 6.9 mph - N/A   Mostly Cloudy
9:00 AM 17.6 °F - 10.4 °F 73% 30.27 in 30.0 mi Calm Calm - N/A   Mostly Cloudy
10:00 AM 15.8 °F 8.6 °F 8.6 °F 73% 30.27 in 30.0 mi South 4.6 mph - N/A   Scattered Clouds
11:00 AM 21 °F - 11 °F 53% 30.25 in 28 mi Calm Calm - -   Partly Cloudy
11:00 AM 21.2 °F - 10.4 °F 63% 30.25 in 30.0 mi Calm Calm - N/A   Scattered Clouds
12:00 PM 23.0 °F 17.0 °F 12.2 °F 63% 30.22 in 30.0 mi South 4.6 mph - N/A   Scattered Clouds
1:00 PM 23.0 °F 17.0 °F 12.2 °F 63% 30.19 in 30.0 mi SSE 4.6 mph - N/A   Scattered Clouds
2:00 PM 24.8 °F 20.5 °F 12.2 °F 59% 30.18 in 30.0 mi SW 3.5 mph - N/A   Scattered Clouds
3:00 PM 23.0 °F - 14.0 °F 68% 30.16 in 30.0 mi SW 2.3 mph - N/A   Mostly Cloudy
4:00 PM 23.0 °F - 15.8 °F 74% 30.15 in 30.0 mi Calm Calm - N/A   Mostly Cloudy
5:00 PM 22 °F - 15 °F 66% 30.14 in 19 mi SW 3.5 mph - -   Mostly Cloudy
5:00 PM 21.2 °F 16.4 °F 15.8 °F 80% 30.14 in 20.0 mi SW 3.5 mph - N/A   Mostly Cloudy
6:00 PM 21.2 °F - 14.0 °F 74% 30.13 in 15.0 mi Calm Calm - N/A   Mostly Cloudy
7:00 PM 19.4 °F - 14.0 °F 80% 30.12 in 15.0 mi Calm Calm - N/A   Mostly Cloudy
8:00 PM 17.6 °F 9.3 °F 12.2 °F 79% 30.12 in 15.0 mi NNW 5.8 mph - N/A   Mostly Cloudy
9:00 PM 21.2 °F 12.6 °F 14.0 °F 74% 30.10 in 15.0 mi West 6.9 mph - N/A   Overcast
10:00 PM 23.0 °F 14.7 °F 15.8 °F 74% 30.09 in 15.0 mi WNW 6.9 mph - N/A   Overcast